{"data":{"norad_id":59520,"epoch":"2026-05-24T23:56:47.154336Z","epoch_age_seconds":69063,"freshness":"FRESH","line1":"1 59520U 24073K   26144.99776799 -.00000635  00000+0 -13546-4 0  9995","line2":"2 59520  43.0019 247.2694 0001461 268.7685  91.3000 15.27573322117849","mean_motion":15.27573322,"eccentricity":0.0001461,"inclination_deg":43.0019,"raan_deg":247.2694,"arg_perigee_deg":268.7685,"mean_anomaly_deg":91.3,"bstar":-1.3546e-5,"rev_number":11784,"period_min":94.267160813902,"perigee_km":482.06667023679,"apogee_km":484.071514657,"semimajor_km":6861.2060924469,"source":"CELESTRAK","updated_at":"2026-05-25T13:38:18.975388Z"}}